TimeCDT,TemperatureF,Dew PointF,Humidity,Sea Level PressureIn,VisibilityMPH,Wind Direction,Wind SpeedMPH,Gust SpeedMPH,PrecipitationIn,Events,Conditions,WindDirDegrees,DateUTC
12:53 AM,82.9,64.0,53,30.03,10.0,SE,6.9,-,N/A,,Clear,130,2013-09-17 05:53:00
1:53 AM,81.0,64.0,56,30.04,10.0,South,8.1,-,N/A,,Clear,170,2013-09-17 06:53:00
2:53 AM,80.1,64.0,58,30.05,10.0,SSW,5.8,-,N/A,,Clear,200,2013-09-17 07:53:00
3:53 AM,79.0,66.0,64,30.03,10.0,SSW,5.8,-,N/A,,Clear,210,2013-09-17 08:53:00
4:53 AM,77.0,66.0,69,30.03,10.0,South,3.5,-,N/A,,Clear,190,2013-09-17 09:53:00
5:53 AM,77.0,66.0,69,30.04,10.0,Calm,Calm,-,N/A,,Clear,0,2013-09-17 10:53:00
6:53 AM,75.9,66.0,71,30.05,10.0,ENE,5.8,-,N/A,,Clear,60,2013-09-17 11:53:00
7:53 AM,77.0,66.0,69,30.06,10.0,ENE,3.5,-,N/A,,Clear,70,2013-09-17 12:53:00
8:53 AM,82.9,66.9,58,30.08,10.0,East,3.5,-,N/A,,Clear,90,2013-09-17 13:53:00
9:53 AM,86.0,66.9,53,30.09,10.0,Calm,Calm,-,N/A,,Clear,0,2013-09-17 14:53:00
10:53 AM,87.1,66.9,51,30.09,10.0,Calm,Calm,-,N/A,,Clear,0,2013-09-17 15:53:00
11:53 AM,90.0,66.0,45,30.08,10.0,Variable,5.8,-,N/A,,Partly Cloudy,0,2013-09-17 16:53:00
12:53 PM,93.9,62.1,35,30.06,10.0,SSE,10.4,-,N/A,,Mostly Cloudy,150,2013-09-17 17:53:00
1:53 PM,93.0,63.0,37,30.03,10.0,Variable,3.5,-,N/A,,Partly Cloudy,0,2013-09-17 18:53:00
2:53 PM,93.0,62.1,36,30.00,10.0,South,4.6,-,N/A,,Partly Cloudy,180,2013-09-17 19:53:00
3:53 PM,93.9,60.1,32,29.97,10.0,SSW,4.6,-,N/A,,Clear,200,2013-09-17 20:53:00
4:53 PM,93.9,60.1,32,29.95,10.0,SW,5.8,-,N/A,,Partly Cloudy,230,2013-09-17 21:53:00
5:53 PM,93.0,60.1,33,29.95,10.0,Calm,Calm,-,N/A,,Clear,0,2013-09-17 22:53:00
6:53 PM,91.0,63.0,39,29.96,10.0,East,12.7,17.3,N/A,,Scattered Clouds,90,2013-09-17 23:53:00
7:53 PM,86.0,64.0,48,29.96,10.0,ENE,4.6,-,N/A,,Clear,70,2013-09-18 00:53:00
8:53 PM,84.9,64.0,49,29.98,10.0,ESE,5.8,-,N/A,,Clear,110,2013-09-18 01:53:00
9:53 PM,82.9,64.9,54,29.99,10.0,ENE,3.5,-,N/A,,Mostly Cloudy,70,2013-09-18 02:53:00
10:53 PM,84.0,64.0,51,29.99,10.0,ESE,5.8,-,N/A,,Partly Cloudy,110,2013-09-18 03:53:00
11:53 PM,82.0,64.9,56,29.99,10.0,ESE,3.5,-,N/A,,Clear,120,2013-09-18 04:53:00